DW7093 Weather Reports


Display with metric or nautical units.
time (UTC)temp
F
wind
direction
speed
MPH
gust
MPH
rain 1hr
in
rain 24hr
in
rain mn
in
humidity
%
barometer
mb
20260504081538 47 166 0.0 2.0 0.00 0.00 0.00 100 1006.8
20260504050015 45 162 0.0 5.0 0.00 0.00 0.00 100 1009.3
20260504044519 45 180 0.0 3.0 0.00 0.00 0.00 100 1009.4
20260504043012 45 167 1.0 3.0 0.00 0.00 0.00 100 1009.3
20260504041513 46 166 0.0 3.0 0.00 0.00 0.00 100 1009.4
20260504040013 46 161 1.0 3.0 0.00 0.00 0.00 100 1009.6
20260504034507 46 158 1.0 3.0 0.00 0.00 0.00 100 1009.8
20260504033011 46 176 2.0 6.0 0.00 0.00 0.00 100 1009.9
20260504031504 46 163 2.0 6.0 0.00 0.00 0.00 100 1010.0
20260504030005 47 159 3.0 6.0 0.00 0.00 0.00 100 1010.1
20260504024503 47 184 3.0 6.0 0.00 0.00 0.00 100 1010.2
20260504023002 47 157 2.0 9.0 0.00 0.00 0.00 100 1010.3
20260504021501 47 155 3.0 7.0 0.00 0.00 0.00 100 1010.2
20260504020001 47 165 3.0 9.0 0.00 0.00 0.00 100 1010.2
20260504014601 47 167 3.0 7.0 0.00 0.00 0.00 100 1010.2
20260504013116 48 165 4.0 8.0 0.00 0.00 0.00 100 1010.3
20260504011600 48 148 4.0 9.0 0.00 0.00 0.00 100 1010.3
20260504010105 48 188 5.0 10.0 0.00 0.00 0.00 100 1010.3
20260504004608 49 150 4.0 9.0 0.00 0.00 0.00 100 1010.5
20260504003054 49 161 3.0 7.0 0.00 0.00 0.00 100 1010.5
20260504001553 49 154 3.0 6.0 0.00 0.00 0.00 100 1010.6
20260504000051 50 143 5.0 10.0 0.00 0.00 0.00 100 1010.7
20260503234549 50 165 6.0 10.0 0.00 0.00 0.00 100 1010.9
20260503233048 50 148 5.0 11.0 0.00 0.00 0.00 100 1011.1
20260503231548 50 181 5.0 9.0 0.00 0.00 0.00 100 1011.2
20260503230048 51 163 8.0 15.0 0.00 0.00 0.00 100 1011.5
20260503224542 49 165 5.0 10.0 0.00 0.00 0.00 100 1011.7
20260503223041 49 169 6.0 10.0 0.00 0.00 0.00 100 1011.8
20260503221539 49 171 6.0 10.0 0.00 0.00 0.00 100 1011.9
20260503220038 48 159 4.0 11.0 0.00 0.00 0.00 100 1012.2
20260503214538 49 194 2.0 8.0 0.00 0.00 0.00 100 1012.1
20260503213035 49 155 4.0 9.0 0.00 0.00 0.00 100 1012.3
20260503211534 49 147 3.0 9.0 0.00 0.00 0.00 100 1012.3
20260503210034 50 147 2.0 8.0 0.00 0.00 0.00 100 1012.8
20260503204529 50 165 1.0 8.0 0.00 0.00 0.00 100 1013.3
20260503203128 51 253 4.0 10.0 0.00 0.00 0.00 100 1013.7
20260503201526 52 140 3.0 12.0 0.00 0.00 0.00 100 1014.0
20260503200025 54 109 4.0 17.0 0.00 0.00 0.00 100 1014.2
20260503194525 55 271 3.0 14.0 0.00 0.00 0.00 58 1014.1
20260503193023 58 259 4.0 14.0 0.00 0.00 0.00 31 1013.7
20260503191531 58 289 3.0 14.0 0.00 0.00 0.00 31 1013.8
20260503190026 59 275 3.0 12.0 0.00 0.00 0.00 29 1013.9
20260503184520 60 281 4.0 13.0 0.00 0.00 0.00 31 1013.9
20260503183018 60 204 5.0 16.0 0.00 0.00 0.00 30 1014.0
20260503181517 60 227 4.0 13.0 0.00 0.00 0.00 30 1014.2
20260503180015 60 296 2.0 16.0 0.00 0.00 0.00 30 1014.6
20260503174512 59 177 4.0 14.0 0.00 0.00 0.00 31 1014.8
20260503173012 59 282 5.0 14.0 0.00 0.00 0.00 29 1015.1
20260503171508 59 256 3.0 11.0 0.00 0.00 0.00 29 1015.3
20260503160115 58 238 4.0 10.0 0.00 0.00 0.00 36 1015.9
20260503110104 41 250 0.0 7.0 0.00 0.00 0.00 100 1016.7